ニート彗星

P/2004 F1 ( NEAT )

English version
Home page
Updated on July 17, 2004

---------------------------------------------------------------------

・ プロフィール

発見日 2004年3月18日
発見光度 18.9等
発見者 Near-Earth-Asteroid Tracking Team (Jet Propulsion Laboratory)

・ 軌道要素

Epoch 2003 Oct. 8.0 TT = JDT 2452920.5
T 2003 Oct. 19.76926 TT                                 MPC
q   2.4506711            (2000.0)            P               Q
n   0.10432156     Peri.   26.36346     -0.72557355     -0.62364278
a   4.4690992      Node   111.91145     +0.56292123     -0.78103640
e   0.4516409      Incl.   18.27219     +0.39580641     -0.03243183
P   9.45

・ 星図

・ 光度変化

        m1 = 9 + 5 logΔ + 20 log r

---------------------------------------------------------------------

軌道要素はM.P.E.C. 2004-G37に掲載されたものです。
星図は StellaNavigator Ver.2.0 for Windows (アストロアーツ 編著 / アスキー出版局刊) で作成したものです。
光度グラフはComet for Windowsで作成したものです。

---------------------------------------------------------------------

Copyright(C) Seiichi Yoshida (comet@aerith.net). All rights reserved.